Flag for Poland Weather past 2 weeks in Lublin, Poland

Now
33 °F

Light snow. Low clouds.


Feels Like: 28 °F
Forecast: 28 / 35 °F
Wind: 5 mph from Southwest

Location: Lublin Radawiec

Current Time: Jan 28, 2015 at 8:14:03 AM

Latest Report: Jan 28, 2015 at 7:00 AM


Visibility: 2 mi

Pressure: 29.93 "Hg

Humidity: 94%

Dew point: 31 °F

Location of LublinLocation

Historic Weather in Lublin — Graph

°F

Lublin temperature yesterday

Maximum temperature yesterday: 35 °F (at 12:00 PM)
Minimum temperature yesterday: 29 °F (at 7:00 AM)
Average temperature yesterday: 31 °F

Past Weeks' High & Low Weather Summary

 TemperatureHumidityPressure
High50 °F (Jan 17, 1:00 PM)100% (Jan 21, 1:00 AM)30.26 "Hg (Jan 21, 1:00 AM)
Low29 °F (Jan 27, 7:00 AM)56% (Jan 17, 1:00 PM)29.83 "Hg (Jan 17, 12:00 PM)
Average35 °F91%30.03 "Hg
* Reported Jan 13 6:00 AM — Jan 28 6:00 AM, Lublin, Weather by CustomWeather, © 2014

Note: Actual official high and low records may vary slightly from our data, if they occured in-between our weather recording intervals... More about our weather records

Advertising

Lublin weather history for previous 24 hours

 ConditionsComfort  
Time TempWeatherWind HumidityBarometerVisibility
6:00 AM
Jan 28
33 °FLight snow. Overcast.5 mph94%29.93 "Hg4 mi
5:00 AM33 °FFog.5 mph93%29.93 "Hg5 mi
4:00 AM33 °FFog.5 mph93%29.93 "Hg5 mi
3:00 AM33 °FFog.5 mph94%29.93 "Hg5 mi
2:00 AM33 °FFog.3 mph94%29.94 "Hg5 mi
1:00 AM33 °FLow clouds.5 mph96%29.94 "Hg2 mi
12:00 AM33 °FLight snow. Low clouds.5 mph98%29.94 "Hg2 mi
11:00 PM
Jan 27
33 °FLight snow. Low clouds.5 mph98%29.94 "Hg1 mi
10:00 PM32 °FLight snow. Low clouds.5 mph98%29.94 "Hg1 mi
9:00 PM32 °FLight snow. Low clouds.3 mph97%29.93 "Hg1 mi
8:00 PM32 °FLight snow. Low clouds.2 mph96%29.93 "Hg2 mi
7:00 PM32 °FLight snow. Overcast.2 mph92%29.92 "Hg5 mi
6:00 PM33 °FLight snow. Overcast.3 mph86%29.92 "Hg6 mi
5:00 PM33 °FLight snow. Overcast.2 mph82%29.91 "Hg7 mi
4:00 PM33 °FOvercast.3 mph80%29.90 "Hg7 mi
1:00 PM34 °FOvercast.3 mph80%29.90 "Hg7 mi
12:00 PM35 °FFog.3 mph80%29.92 "Hg6 mi
11:00 AM34 °FFog.3 mph83%29.93 "Hg6 mi
10:00 AM32 °FFog.3 mph89%29.95 "Hg4 mi
9:00 AM30 °FFog.3 mph91%29.96 "Hg3 mi
8:00 AM29 °FFog.3 mph95%29.96 "Hg2 mi
Weather by CustomWeather, © 2014

See weather overviewHow to use our weather pages